Regional Weather Roundup
Issued by NWS

Home | Current Version | Previous Version | Graphics & Text | Print | Product List | Glossary On
Versions: 1 2 3 4 5 6 7 8 9 10 11 12 13 14 15 16 17 18 19 20 21 22 23 24 25 26 27 28 29 30 31 32 33 34 35 36 37 38 39 40 41 42 43 44 45 46 47 48 49 50
000
ASUS43 KMKX 101100
RWRWI

WISCONSIN REGIONAL WEATHER ROUNDUP
NATIONAL WEATHER SERVICE MILWAUKEE/SULLIVAN WI
600 AM CDT THU JUL 10 2014

NOTE: "FAIR" INDICATES FEW OR NO CLOUDS BELOW 12,000 FEET WITH NO
SIGNIFICANT WEATHER AND/OR OBSTRUCTIONS TO VISIBILITY.

WIZ001-002-006>008-014>016-023>028-101200-
NORTHWEST WISCONSIN

CITY           SKY/WX    TMP DP  RH WIND       PRES   REMARKS
SUPERIOR ARPT  CLOUDY    47  47  99 CALM      30.05S
ASHLAND        MOCLDY    47  46  97 CALM      30.09R
HAYWARD        MOCLDY    53  51  93 CALM      30.09R
SIREN          PTCLDY    58  55  89 SE6       30.06S
RICE LAKE      PTCLDY    55  52  90 CALM      30.09S
LADYSMITH      PTCLDY    53  49  88 E5        30.12S
EAU CLAIRE     NOT AVBL
MENOMONIE      SUNNY     56  55  94 E3        30.08S
NEW RICHMOND   CLEAR     56  55  95 E5        30.06S
OSCEOLA        PTCLDY    58  57  99 E5        30.07S
$$

WIZ003>005-009-010-017-018-101200-
NORTH CENTRAL WISCONSIN

CITY           SKY/WX    TMP DP  RH WIND       PRES   REMARKS
WOODRUFF       CLEAR     44  37  77 CALM      30.13R
RHINELANDER    CLEAR     44  42  93 CALM      30.14S
EAGLE RIVER    CLEAR     40  40 100 CALM      30.13R
LAND O LAKES   CLEAR     37  37 100 CALM      30.14R
PHILLIPS       PTCLDY    48  46  93 CALM      30.12R
TOMAHAWK       FOG       40  39  97 CALM      30.14R VSB 1/2
MEDFORD        PTCLDY    51  49  92 CALM      30.12S
MERRILL        PTCLDY    45  44  99 CALM      30.13R
$$

WIZ029-030-035-036-043>047-101200-
CENTRAL WISCONSIN

CITY           SKY/WX    TMP DP  RH WIND       PRES   REMARKS
WAUSAU         CLEAR     50  48  93 CALM      30.12R
MOSINEE        CLEAR     48  48 100 E3        30.14R
MARSHFIELD     CLEAR     53  50  89 E3        30.12R
STEVENS POINT  CLEAR     45  44  95 CALM      30.13S
WAUPACA        CLEAR     50  49  95 CALM      30.14R
WAUTOMA        NOT AVBL
WISC RAPIDS    CLEAR     50  49  96 CALM      30.13R
CAMP DOUGLAS   CLEAR     49  49 100 E5        30.11S
$$

WIZ011>013-019>022-031-037>040-048>050-101200-
NORTHEAST WISCONSIN

CITY           SKY/WX    TMP DP  RH WIND       PRES   REMARKS
ANTIGO         CLEAR     43  42  98 NE3       30.15R
STURGEON BAY   CLEAR     52  48  87 CALM      30.15R
GREEN BAY      CLEAR     53  51  93 CALM      30.14R
MANITOWOC      NOT AVBL
APPLETON       PTCLDY    57  50  77 CALM      30.14R
CLINTONVILLE   CLEAR     48  46  93 CALM      30.13R
OSHKOSH        CLEAR     53  51  93 CALM      30.13R
$$

WIZ032>034-041-042-053>061-101200-
SOUTHWEST WISCONSIN

CITY           SKY/WX    TMP DP  RH WIND       PRES   REMARKS
LA CROSSE      CLEAR     60  55  83 E8        30.08R
SPARTA         CLEAR     48  47  95 CALM      30.11R
VIROQUA        FAIR      57  56  97 SE6       30.10S
BOSCOBEL       MOCLDY    58  55  90 NE3       30.11R
PRAIRIE DU CHI CLEAR     59  56  92 SE3       30.09R
PLATTEVILLE    CLOUDY    61  56  82 SE6       30.12R
$$

WIZ056-057-062-063-064-067-068-101200-
SOUTH CENTRAL WISCONSIN

CITY           SKY/WX    TMP DP  RH WIND       PRES   REMARKS
BARABOO/DELLS  CLEAR     53  50  90 CALM      30.12R
LONE ROCK      NOT AVBL
WATERTOWN      CLEAR     53  52  99 CALM      30.13R
MADISON        CLEAR     53  51  93 CALM      30.13R
MIDDLETON        N/A     51  51 100 CALM      30.13R VSB 1/2
MONROE         CLEAR     59  52  77 S5        30.12R
JANESVILLE     CLEAR     54  50  87 CALM      30.12R
$$

WIZ051-052-058>065-066-070>072-101200-
SOUTHEAST WISCONSIN

CITY           SKY/WX    TMP DP  RH WIND       PRES   REMARKS
MILWAUKEE      PTCLDY    58  54  86 CALM      30.13R
WAUKESHA       CLEAR     52  52 100 CALM      30.14R
MILWAUKEE/TIMM CLEAR     54  50  87 CALM      30.14R
RACINE         PTCLDY    55  54  96 CALM      30.15R
BURLINGTON     CLEAR     49  49 100 CALM      30.13R
KENOSHA        FOG       53  53 100 CALM      30.14R VSB 1/4
FOND DU LAC    CLEAR     52  50  93 CALM      30.14R
SHEBOYGAN      FOG       51  50  96 CALM      30.14R VSB 1/4
WEST BEND      PTCLDY    50  46  87 CALM      30.14R
JUNEAU         CLEAR     54  39  57 CALM      30.14R
$$

LSZ147-162-101200-
LAKE SUPERIOR

STATION/POSITION TIME  TEMP    WIND        PRES    WAVE
                       AIR SEA DIR/SP/G            HT/PER
                 (UTC) (F)     (DEG/KT/KT) (MB)    (FT/S)
W MID LAKE BUOY  0950   45 38  170/  2/  2 1018.5R   0
DEVILS ISLAND    1000   60     200/  6/  7 1018.1R
PORT WING        1000   56     110/  3/  4 1017.6
SAXON HARBOR     1000          210/  6/  7 1018.3
$$

LMZ867-665-643>646-101200-
LAKE MICHIGAN

STATION/POSITION TIME  TEMP    WIND        PRES    WAVE
                       AIR SEA DIR/SP/G            HT/PER
                 (UTC) (F)     (DEG/KT/KT) (MB)    (FT/S)
N MID LAKE BUOY  0950   55 53  190/  4/  4 1019.8R   0
NORTHPORT PIER   1000   57     170/  4/  7 1020.0R
KEWAUNEE LAKESHO 1000   49      50/  3/  4 1020.8R
SHEBOYGAN LAKESH 1000   56        CALM     1020.6R
PORT WASHINGTON  1000   56     260/  2/  3 1020.7R
MILWAUKEE LAKESH 1000   58      30/  1/  1   N/A
S MID LAKE BUOY  0950   57 56   20/  4/  6 1020.2R   0
KENOSHA   LAKESH 1000   58      10/  2/  3   N/A
$$

TC  - TEMPERATURE IN CELSIUS
VSB - VISIBILITY IN STATUTE MILES
WCI - WIND CHILL INDEX
HX  - HEAT INDEX



USA.gov is the U.S. government's official web portal to all federal, state and local government web resources and services.